Skip Page Navigation
NASA JPL Caltech
NASA Logo - Jet Propulsion Laboratory + View the NASA Portal
+ Center for Near-Earth Object Studies
JPL Home Earth Solar System Stars & Galaxies Technology
JPL Solar System Dynamics
BODIES ORBITS EPHEMERIDES TOOLS PHYSICAL DATA DISCOVERY FAQ SITE MAP

Significant website upgrade scheduled for September 27. More details available here.

JPL Small-Body Database Browser
Search: [ help ]  
212546 (2006 SV19)
Classification: Amor [NEO, PHA]          SPK-ID: 2212546
Ephemeris | Orbit Diagram | Orbital Elements | Mission Design | Physical Parameters | Discovery Circumstances | Close-Approach Data ]

[ hide orbit diagram ]

For accurate long-term ephemerides, please instead use our Horizons system.This orbit viewer was implemented using two-body methods, and hence should not be used for determining accurate long-term trajectories (over several years or decades) or planetary encounter circumstances.


Orbital Elements at Epoch 2459396.5 (2021-Jul-01.0) TDB
Reference: JPL 108 (heliocentric ecliptic J2000)
 Element Value Uncertainty (1-sigma)   Units 
e .5155367399904317 3.7805e-08  
a 2.132629473730769 2.1489e-08 au
q 1.033180627236099 8.4683e-08 au
i 7.355455754890996 5.1423e-06 deg
node 116.2126179547819 5.1046e-05 deg
peri 182.5876361132345 5.1276e-05 deg
M 296.1126508966834 2.2775e-05 deg
tp 2459598.375634573967
(2022-Jan-18.87563457)
7.4958e-05 TDB
period 1137.552730965562
3.11
1.7193e-05
4.707e-08
d
yr
n .3164688459711486 4.7832e-09 deg/d
Q 3.23207832022544 3.2567e-08 au
  Orbit Determination Parameters
   # obs. used (total)      366  
   data-arc span      6259 days (17.14 yr)  
   first obs. used      2003-12-21  
   last obs. used      2021-02-08  
   planetary ephem.      DE441  
   SB-pert. ephem.      SB441-N16  
   condition code      0  
   norm. resid. RMS      .61792  
   source      ORB  
   producer      Otto Matic  
   solution date      2021-Apr-13 23:39:06  

Additional Information
 Earth MOID = .0171454 au 
 Jupiter MOID = 2.02154 au 
 T_jup = 3.528 
[ show covariance matrix ]

Ephemeris | Orbit Diagram | Orbital Elements | Mission Design | Physical Parameters | Discovery Circumstances | Close-Approach Data ]

Physical Parameter Table
Parameter Symbol Value Units Sigma Reference Notes
absolute magnitude H 17.65   n/a MPCxxxxx  

212546 (2006 SV19)          Discovered 2006-Sep-19 by CSS at Catalina
Reference: 20090409/Numbers.arcLast Updated: 2009-04-10

[ show close-approach data ]
Ephemeris | Orbit Diagram | Orbital Elements | Mission Design | Physical Parameters | Discovery Circumstances | Close-Approach Data ]
ABOUT SSD CREDITS/AWARDS PRIVACY/COPYRIGHT GLOSSARY LINKS
FirstGov 2021-Sep-22 12:51 UT
(server date/time)  
NASA Home Page
Site Manager:   Ryan S. Park
Webmaster  Alan B. Chamberlin